Time,TemperatureF,DewpointF,PressureIn,WindDirection,WindDirectionDegrees,WindSpeedMPH,WindSpeedGustMPH,Humidity,HourlyPrecipIn,Conditions,Clouds,dailyrainin,SoftwareType,DateUTC
2013-01-30 00:01:00,39.0,29.0,30.26,SSE,158,0.0,0.0,66,0.00,,,0.00,,2013-01-30 08:01:00,
2013-01-30 00:21:00,39.0,29.0,30.27,South,180,0.0,0.0,66,0.00,,,0.00,,2013-01-30 08:21:00,
2013-01-30 00:32:00,39.0,29.0,30.27,SSE,158,0.0,0.0,67,0.00,,,0.00,,2013-01-30 08:32:00,
2013-01-30 00:52:00,38.0,28.0,30.28,SSE,158,0.0,0.0,68,0.00,,,0.00,,2013-01-30 08:52:00,
2013-01-30 01:01:00,38.0,28.0,30.27,SSE,158,0.0,0.0,68,0.00,,,0.00,,2013-01-30 09:01:00,
2013-01-30 01:31:00,38.0,29.0,30.26,SE,135,0.0,0.0,69,0.00,,,0.00,,2013-01-30 09:31:00,
2013-01-30 01:52:00,37.0,28.0,30.26,SE,135,0.0,0.0,69,0.00,,,0.00,,2013-01-30 09:52:00,
2013-01-30 02:01:00,37.0,28.0,30.28,WSW,248,0.0,0.0,70,0.00,,,0.00,,2013-01-30 10:01:00,
2013-01-30 02:21:00,37.0,28.0,30.27,WSW,248,0.0,0.0,70,0.00,,,0.00,,2013-01-30 10:21:00,
2013-01-30 02:31:00,37.0,28.0,30.27,WSW,248,0.0,0.0,70,0.00,,,0.00,,2013-01-30 10:31:00,
2013-01-30 02:52:00,37.0,28.0,30.26,WSW,248,0.0,0.0,70,0.00,,,0.00,,2013-01-30 10:52:00,
2013-01-30 03:01:00,36.0,28.0,30.26,WSW,248,0.0,0.0,71,0.00,,,0.00,,2013-01-30 11:01:00,
2013-01-30 03:21:00,36.0,28.0,30.26,WSW,248,0.0,0.0,71,0.00,,,0.00,,2013-01-30 11:21:00,
2013-01-30 03:32:00,36.0,28.0,30.26,West,270,0.0,0.0,72,0.00,,,0.00,,2013-01-30 11:32:00,
2013-01-30 03:52:00,36.0,28.0,30.27,West,270,0.0,0.0,72,0.00,,,0.00,,2013-01-30 11:52:00,
2013-01-30 04:02:00,36.0,28.0,30.27,West,270,0.0,0.0,73,0.00,,,0.00,,2013-01-30 12:02:00,
2013-01-30 04:22:00,36.0,29.0,30.26,West,270,0.0,0.0,74,0.00,,,0.00,,2013-01-30 12:22:00,
2013-01-30 04:32:00,35.0,28.0,30.26,West,270,0.0,0.0,74,0.00,,,0.00,,2013-01-30 12:32:00,
2013-01-30 05:02:00,35.0,27.0,30.26,SSW,203,0.0,0.0,73,0.00,,,0.00,,2013-01-30 13:02:00,
2013-01-30 05:22:00,35.0,27.0,30.26,SSW,203,0.0,0.0,73,0.00,,,0.00,,2013-01-30 13:22:00,
2013-01-30 05:31:00,35.0,27.0,30.27,SSW,203,0.0,0.0,73,0.00,,,0.00,,2013-01-30 13:31:00,
2013-01-30 06:02:00,34.0,26.0,30.28,SSW,203,0.0,0.0,72,0.00,,,0.00,,2013-01-30 14:02:00,
2013-01-30 06:22:00,34.0,27.0,30.28,SSW,203,0.0,0.0,74,0.00,,,0.00,,2013-01-30 14:22:00,
2013-01-30 06:32:00,34.0,27.0,30.29,SSW,203,0.0,0.0,74,0.00,,,0.00,,2013-01-30 14:32:00,
2013-01-30 06:42:00,34.0,27.0,30.29,SSW,203,0.0,0.0,74,0.00,,,0.00,,2013-01-30 14:42:00,
2013-01-30 06:52:00,34.0,27.0,30.29,SSW,203,0.0,0.0,75,0.00,,,0.00,,2013-01-30 14:52:00,
2013-01-30 07:02:00,34.0,28.0,30.29,SE,135,0.0,0.0,77,0.00,,,0.00,,2013-01-30 15:02:00,
2013-01-30 07:11:00,34.0,28.0,30.29,SE,135,0.0,0.0,77,0.00,,,0.00,,2013-01-30 15:11:00,
2013-01-30 07:22:00,34.0,28.0,30.29,SSE,158,0.0,0.0,77,0.00,,,0.00,,2013-01-30 15:22:00,
2013-01-30 07:32:00,34.0,28.0,30.30,SSE,158,0.0,0.0,78,0.00,,,0.00,,2013-01-30 15:32:00,
2013-01-30 07:42:00,34.0,28.0,30.30,SSE,158,0.0,0.0,78,0.00,,,0.00,,2013-01-30 15:42:00,
2013-01-30 07:52:00,35.0,29.0,30.30,SSE,158,0.0,0.0,78,0.00,,,0.00,,2013-01-30 15:52:00,
2013-01-30 08:03:00,35.0,29.0,30.31,SSE,158,0.0,0.0,79,0.00,,,0.00,,2013-01-30 16:03:00,
2013-01-30 08:11:00,35.0,29.0,30.31,SSE,158,0.0,0.0,79,0.00,,,0.00,,2013-01-30 16:11:00,
2013-01-30 08:22:00,35.0,29.0,30.31,SSE,158,0.0,0.0,79,0.00,,,0.00,,2013-01-30 16:22:00,
2013-01-30 08:31:00,35.0,29.0,30.31,SSE,158,0.0,0.0,80,0.00,,,0.00,,2013-01-30 16:31:00,
2013-01-30 08:41:00,35.0,29.0,30.31,SSE,158,0.0,0.0,80,0.00,,,0.00,,2013-01-30 16:41:00,
2013-01-30 08:52:00,35.0,29.0,30.31,SSE,158,0.0,0.0,80,0.00,,,0.00,,2013-01-30 16:52:00,
2013-01-30 09:01:00,37.0,32.0,30.33,SSE,158,0.0,0.0,83,0.00,,,0.00,,2013-01-30 17:01:00,
2013-01-30 09:11:00,37.0,32.0,30.33,SSE,158,0.0,0.0,83,0.00,,,0.00,,2013-01-30 17:11:00,
2013-01-30 09:22:00,40.0,36.0,30.33,SE,135,3.0,3.0,86,0.00,,,0.00,,2013-01-30 17:22:00,
2013-01-30 09:32:00,43.0,39.0,30.32,WNW,293,0.0,2.0,85,0.00,,,0.00,,2013-01-30 17:32:00,
2013-01-30 09:42:00,43.0,39.0,30.32,WNW,293,0.0,2.0,85,0.00,,,0.00,,2013-01-30 17:42:00,
2013-01-30 09:52:00,46.0,41.0,30.32,WSW,248,0.0,4.0,83,0.00,,,0.00,,2013-01-30 17:52:00,
2013-01-30 10:02:00,47.0,41.0,30.32,WSW,248,0.0,2.0,81,0.00,,,0.00,,2013-01-30 18:02:00,
2013-01-30 10:11:00,47.0,41.0,30.32,WSW,248,0.0,2.0,81,0.00,,,0.00,,2013-01-30 18:11:00,
2013-01-30 10:22:00,51.0,42.0,30.33,WSW,248,2.0,2.0,72,0.00,,,0.00,,2013-01-30 18:22:00,
2013-01-30 10:32:00,51.0,42.0,30.33,WSW,248,2.0,2.0,71,0.00,,,0.00,,2013-01-30 18:32:00,
2013-01-30 10:42:00,51.0,42.0,30.33,WSW,248,2.0,2.0,71,0.00,,,0.00,,2013-01-30 18:42:00,
2013-01-30 10:52:00,52.0,41.0,30.32,WSW,248,3.0,3.0,67,0.00,,,0.00,,2013-01-30 18:52:00,
2013-01-30 11:02:00,53.0,42.0,30.32,WSW,248,2.0,3.0,65,0.00,,,0.00,,2013-01-30 19:02:00,
2013-01-30 11:11:00,53.0,42.0,30.32,WSW,248,2.0,3.0,65,0.00,,,0.00,,2013-01-30 19:11:00,
2013-01-30 11:21:00,54.0,42.0,30.32,WSW,248,0.0,4.0,63,0.00,,,0.00,,2013-01-30 19:21:00,
2013-01-30 11:32:00,55.0,42.0,30.31,WSW,248,2.0,2.0,61,0.00,,,0.00,,2013-01-30 19:32:00,
2013-01-30 11:42:00,55.0,42.0,30.31,WSW,248,2.0,2.0,61,0.00,,,0.00,,2013-01-30 19:42:00,
2013-01-30 11:52:00,55.0,41.0,30.31,WSW,248,4.0,4.0,60,0.00,,,0.00,,2013-01-30 19:52:00,
2013-01-30 12:02:00,56.0,41.0,30.30,WSW,248,4.0,4.0,57,0.00,,,0.00,,2013-01-30 20:02:00,
2013-01-30 12:11:00,56.0,41.0,30.30,WSW,248,4.0,4.0,57,0.00,,,0.00,,2013-01-30 20:11:00,
2013-01-30 12:21:00,57.0,41.0,30.30,NNW,347,5.0,6.0,56,0.00,,,0.00,,2013-01-30 20:21:00,
2013-01-30 12:32:00,58.0,41.0,30.29,WNW,293,0.0,0.0,54,0.00,,,0.00,,2013-01-30 20:32:00,
2013-01-30 12:41:00,58.0,41.0,30.29,WNW,293,0.0,0.0,54,0.00,,,0.00,,2013-01-30 20:41:00,
2013-01-30 12:52:00,60.0,43.0,30.28,NNW,338,4.0,6.0,53,0.00,,,0.00,,2013-01-30 20:52:00,
2013-01-30 13:02:00,61.0,43.0,30.27,NNW,338,4.0,5.0,51,0.00,,,0.00,,2013-01-30 21:02:00,
2013-01-30 13:11:00,61.0,43.0,30.27,NNW,338,4.0,5.0,51,0.00,,,0.00,,2013-01-30 21:11:00,
2013-01-30 13:22:00,63.0,44.0,30.26,NNW,338,0.0,2.0,49,0.00,,,0.00,,2013-01-30 21:22:00,
2013-01-30 13:31:00,64.0,43.0,30.26,NE,35,6.0,7.0,47,0.00,,,0.00,,2013-01-30 21:31:00,
2013-01-30 13:42:00,64.0,43.0,30.26,NE,35,6.0,7.0,47,0.00,,,0.00,,2013-01-30 21:42:00,
2013-01-30 13:52:00,67.0,46.0,30.25,NNW,338,0.0,4.0,46,0.00,,,0.00,,2013-01-30 21:52:00,
2013-01-30 14:21:00,71.0,45.0,30.25,NNW,338,0.0,2.0,40,0.00,,,0.00,,2013-01-30 22:21:00,
2013-01-30 14:31:00,74.0,43.0,30.25,NW,315,2.0,6.0,33,0.00,,,0.00,,2013-01-30 22:31:00,
2013-01-30 14:52:00,74.0,42.0,30.25,NNW,338,4.0,4.0,32,0.00,,,0.00,,2013-01-30 22:52:00,
2013-01-30 15:01:00,76.0,43.0,30.25,NNW,338,0.0,4.0,31,0.00,,,0.00,,2013-01-30 23:01:00,
2013-01-30 15:21:00,77.0,44.0,30.25,NNW,338,0.0,0.0,31,0.00,,,0.00,,2013-01-30 23:21:00,
2013-01-30 15:32:00,79.0,43.0,30.25,NNW,338,0.0,2.0,28,0.00,,,0.00,,2013-01-30 23:32:00,
2013-01-30 15:52:00,78.0,41.0,30.24,NNW,338,2.0,2.0,27,0.00,,,0.00,,2013-01-30 23:52:00,
2013-01-30 16:01:00,78.0,41.0,30.24,NNW,338,6.0,6.0,27,0.00,,,0.00,,2013-01-31 00:01:00,
2013-01-30 16:11:00,78.0,41.0,30.24,NNW,338,6.0,6.0,27,0.00,,,0.00,,2013-01-31 00:11:00,
2013-01-30 16:21:00,74.0,39.0,30.24,SW,225,0.0,2.0,28,0.00,,,0.00,,2013-01-31 00:21:00,
2013-01-30 16:31:00,70.0,40.0,30.24,WSW,248,0.0,0.0,34,0.00,,,0.00,,2013-01-31 00:31:00,
2013-01-30 16:53:00,66.0,39.0,30.24,NW,322,3.0,3.0,37,0.00,,,0.00,,2013-01-31 00:53:00,
2013-01-30 17:01:00,64.0,39.0,30.24,NW,315,0.0,2.0,40,0.00,,,0.00,,2013-01-31 01:01:00,
2013-01-30 17:11:00,64.0,39.0,30.24,NW,315,0.0,2.0,40,0.00,,,0.00,,2013-01-31 01:11:00,
2013-01-30 17:21:00,63.0,38.0,30.24,NW,315,0.0,0.0,40,0.00,,,0.00,,2013-01-31 01:21:00,
2013-01-30 17:31:00,61.0,38.0,30.25,NNW,338,0.0,0.0,42,0.00,,,0.00,,2013-01-31 01:31:00,
2013-01-30 17:41:00,61.0,38.0,30.25,NNW,338,0.0,0.0,42,0.00,,,0.00,,2013-01-31 01:41:00,
2013-01-30 17:52:00,60.0,37.0,30.24,NNW,338,0.0,0.0,43,0.00,,,0.00,,2013-01-31 01:52:00,
2013-01-30 18:01:00,59.0,38.0,30.25,NNW,338,0.0,0.0,45,0.00,,,0.00,,2013-01-31 02:01:00,
2013-01-30 18:11:00,59.0,38.0,30.25,NNW,338,0.0,0.0,45,0.00,,,0.00,,2013-01-31 02:11:00,
2013-01-30 18:21:00,57.0,36.0,30.25,NNW,338,0.0,0.0,45,0.00,,,0.00,,2013-01-31 02:21:00,
2013-01-30 18:32:00,56.0,36.0,30.25,NNW,338,0.0,0.0,47,0.00,,,0.00,,2013-01-31 02:32:00,
2013-01-30 18:41:00,56.0,36.0,30.25,NNW,338,0.0,0.0,47,0.00,,,0.00,,2013-01-31 02:41:00,
2013-01-30 18:52:00,56.0,36.0,30.25,NNW,338,0.0,0.0,47,0.00,,,0.00,,2013-01-31 02:52:00,
2013-01-30 19:01:00,53.0,36.0,30.25,NW,315,0.0,0.0,52,0.00,,,0.00,,2013-01-31 03:01:00,
2013-01-30 19:11:00,53.0,36.0,30.25,NW,315,0.0,0.0,52,0.00,,,0.00,,2013-01-31 03:11:00,
2013-01-30 19:21:00,53.0,36.0,30.25,NW,315,0.0,0.0,52,0.00,,,0.00,,2013-01-31 03:21:00,
2013-01-30 19:31:00,52.0,36.0,30.25,WNW,293,0.0,0.0,54,0.00,,,0.00,,2013-01-31 03:31:00,
2013-01-30 19:41:00,52.0,36.0,30.25,WNW,293,0.0,0.0,54,0.00,,,0.00,,2013-01-31 03:41:00,
2013-01-30 19:51:00,51.0,35.0,30.25,WNW,293,0.0,0.0,54,0.00,,,0.00,,2013-01-31 03:51:00,
2013-01-30 20:02:00,50.0,34.0,30.25,WNW,293,0.0,0.0,55,0.00,,,0.00,,2013-01-31 04:02:00,
2013-01-30 20:11:00,50.0,34.0,30.25,WNW,293,0.0,0.0,55,0.00,,,0.00,,2013-01-31 04:11:00,
2013-01-30 20:22:00,49.0,34.0,30.24,WNW,293,0.0,0.0,55,0.00,,,0.00,,2013-01-31 04:22:00,
2013-01-30 20:31:00,49.0,34.0,30.24,WNW,293,0.0,0.0,55,0.00,,,0.00,,2013-01-31 04:31:00,
2013-01-30 20:52:00,48.0,33.0,30.25,WNW,293,0.0,0.0,56,0.00,,,0.00,,2013-01-31 04:52:00,
2013-01-30 21:03:00,47.0,33.0,30.25,WNW,293,0.0,0.0,57,0.00,,,0.00,,2013-01-31 05:03:00,
2013-01-30 21:41:00,46.0,32.0,30.26,WNW,293,0.0,0.0,58,0.00,,,0.00,,2013-01-31 05:41:00,
2013-01-30 21:51:00,46.0,32.0,30.26,WNW,293,0.0,0.0,58,0.00,,,0.00,,2013-01-31 05:51:00,
2013-01-30 22:01:00,46.0,32.0,30.26,WNW,293,0.0,0.0,58,0.00,,,0.00,,2013-01-31 06:01:00,
2013-01-30 22:10:00,46.0,32.0,30.26,WNW,293,0.0,0.0,58,0.00,,,0.00,,2013-01-31 06:10:00,